{"data":{"norad_id":48563,"intl_designator":"2021-041L","name":"STARLINK-2188","alt_names":[],"object_type":"PAYLOAD","status":"ACTIVE","operator":null,"country":"US","launch_date":"2021-05-15","launch_site_code":"AFETR","launch_vehicle":null,"mission":null,"orbit_class":"UNKNOWN","rcs_meters":null,"size_class":null,"mass_kg":null,"dimensions":null,"purposes":["comms"],"wikipedia_slug":null,"has_3d_model":false,"image_url":null,"decayed_at":null,"tle_current":{"epoch":"2026-05-25T02:37:27.845184Z","epoch_age_seconds":58820,"freshness":"FRESH","line1":"1 48563U 21041L   26145.10935006  .00001335  00000+0  54786-4 0  9991","line2":"2 48563  53.1581 131.2908 0001143  57.0117 303.0994 15.31700737276989","mean_motion":15.31700737,"eccentricity":0.0001143,"inclination_deg":53.1581,"raan_deg":131.2908,"arg_perigee_deg":57.0117,"mean_anomaly_deg":303.0994,"bstar":5.4786e-5,"rev_number":27698,"period_min":94.013142725282,"perigee_km":469.95497187844,"apogee_km":471.52062465732,"semimajor_km":6848.8747982679,"source":"CELESTRAK","updated_at":"2026-05-25T13:38:16.725647Z"}}}